Flag for Germany Weather past 2 weeks in Bergheim, North Rhine-Westphalia, Germany

Now
63 °F

Passing clouds.


Feels Like: 63 °F
Forecast: 56 / 77 °F
Wind: 3 mph from Southwest

Location: Noervenich

Current Time: Jul 26, 2014 at 1:29:39 AM

Latest Report: Jul 26, 2014 at 12:20 AM


Visibility: N/A

Pressure: 29.92 "Hg

Humidity: 88%

Dew point: 59 °F

Location of BergheimLocation

Historic Weather in Bergheim — Graph

°F

Bergheim temperature yesterday

Maximum temperature yesterday: 73 °F (at 3:20 PM)
Minimum temperature yesterday: 57 °F (at 4:20 AM)
Average temperature yesterday: 66 °F

Past Weeks' High & Low Weather Summary

 TemperatureHumidityPressure
High93 °F (Jul 18, 5:20 PM)100% (Jul 11, 12:49 AM)30.18 "Hg (Jul 11, 12:49 AM)
Low55 °F (Jul 14, 5:20 AM)28% (Jul 18, 5:20 PM)29.74 "Hg (Jul 13, 4:20 PM)
Average69 °F76%29.97 "Hg
* Reported Jul 11 12:02 AM — Jul 26 12:20 AM, Bergheim, Weather by CustomWeather, © 2014

Note: Actual official high and low records may vary slightly from our data, if they occured in-between our weather recording intervals... More about our weather records

Advertising

Bergheim weather history for previous 24 hours

 ConditionsComfort  
Time TempWeatherWind HumidityBarometerVisibility
12:20 AM
Jul 26
63 °FPassing clouds.3 mph88%29.92 "HgN/A
11:20 PM
Jul 25
64 °FPassing clouds.2 mph88%29.92 "HgN/A
10:20 PM66 °FPassing clouds.5 mph83%29.92 "HgN/A
9:20 PM68 °FScattered clouds.3 mph78%29.92 "HgN/A
8:20 PM70 °FScattered clouds.2 mph69%29.92 "HgN/A
7:20 PM72 °FScattered clouds.7 mph65%29.92 "HgN/A
6:20 PM73 °FPassing clouds.6 mph61%29.89 "HgN/A
5:20 PM73 °FScattered clouds.7 mph61%29.92 "HgN/A
4:20 PM73 °FScattered clouds.3 mph61%29.92 "HgN/A
3:20 PM73 °FScattered clouds.5 mph61%29.92 "HgN/A
2:20 PM70 °FScattered clouds.6 mph69%29.95 "HgN/A
1:20 PM72 °FScattered clouds.3 mph65%29.95 "HgN/A
12:20 PM70 °FScattered clouds.3 mph69%29.95 "HgN/A
11:20 AM68 °FScattered clouds.3 mph69%29.98 "HgN/A
10:20 AM68 °FPassing clouds.3 mph73%29.98 "HgN/A
9:20 AM66 °FPassing clouds.1 mph78%29.98 "HgN/A
8:20 AM64 °FPassing clouds.1 mph83%29.98 "HgN/A
7:20 AM59 °FPassing clouds.No wind94%29.98 "HgN/A
6:20 AM57 °FFog.No wind94%29.98 "HgN/A
5:20 AM57 °FFog.2 mph94%29.98 "HgN/A
4:20 AM57 °FPassing clouds.1 mph100%29.95 "HgN/A
3:20 AM59 °FPassing clouds.1 mph94%29.98 "HgN/A
2:20 AM61 °FPassing clouds.1 mph88%29.98 "HgN/A
1:20 AM61 °FPartly cloudy.2 mph88%29.98 "HgN/A
Weather by CustomWeather, © 2014

See weather overviewHow to use our weather pages